Location: Peterborough
(44.3091°N, 78.3197°W)
Time: 16:12:08
(UTC-04:00)

Transit 2A - Pass Details

Date: 28 March 2023
Orbit: 591 x 964 km, 66.7° (Epoch: 04 June)

Event Time Altitude Azimuth Distance (km) Brightness Sun altitude
Rises 12:44:16 0° 332° (NNW) 3,620 9.1 48.1°
Reaches altitude 10° 12:47:13 10° 343° (NNW) 2,696 8.5 48.2°
Maximum altitude 12:52:38 28° 42° (NE) 1,711 7.9 48.4°
Drops below altitude 10° 12:58:01 10° 100° (E) 2,675 9.1 48.5°
Sets 13:00:54 0° 112° (ESE) 3,588 9.7 48.6°
